Jefferson, NC

4:41 PM EST on November 17, 2017 (GMT -0500)
Ashe County

Weather History for KGEV - January, 2003

Change the Weather History Date:

Tuesday, January 7, 2003

  Actual Average Record
Temperature  
Mean Temperature 26 °F -  
Max Temperature 33 °F 43 °F 64 °F (2008)
Min Temperature 19 °F 25 °F -6 °F (2014)
Degree Days  
Heating Degree Days 39    
Moisture  
Dew Point 14 °F    
Average Humidity 63    
Maximum Humidity 86    
Minimum Humidity 38    
Precipitation  
Precipitation 0.00 in - - ()
Sea Level Pressure  
Sea Level Pressure 30.03 in    
Wind  
Wind Speed 19 mph (WNW)    
Max Wind Speed 40 mph    
Max Gust Speed 53 mph    
Visibility 9 miles    
Events Snow    
Averages and records for this station are not official NWS values.
T = Trace of Precipitation, MM = Missing Value Source: NWS Daily Summary

Daily Weather History Graph

Daily Weather History Graph

Search for Another Location

Airport or City:

Trip Planner

Search our weather history database for the weather conditions in past years. The results will help you decide how hot, cold, wet, or windy it might be!

Date:

Astronomy

Jan. 07, 2003 Rise Set
Actual Time 7:37 AM EST 5:26 PM EST
Civil Twilight 7:09 AM EST 5:54 PM EST
Nautical Twilight 6:37 AM EST 6:26 PM EST
Astronomical Twilight 6:06 AM EST 6:57 PM EST
Moon 11:04 AM EST (1/7) 10:27 PM EST (1/7)
Length of Visible Light 10h 45m
Length of Day
9h 48m
Waxing Crescent, 24% of the Moon is Illuminated
Jan 7
Waxing Crescent
Jan 10
First Quarter
Jan 18
Full
Jan 25
Last Quarter
Feb 1
New

Hourly Weather History & Observations

Time (EST) Temp. Windchill Dew Point Humidity Pressure Visibility Wind Dir Wind Speed Gust Speed Precip Events Conditions
12:19 AM 21.2 °F 4.9 °F 14.0 °F 74% 30.04 in 10.0 mi NW 23.0 mph 41.4 mph N/A   Overcast
12:41 AM 21.2 °F 3.5 °F 15.8 °F 80% 30.04 in 7.0 mi NW 27.6 mph 38.0 mph N/A Snow Light Snow
12:59 AM 21.2 °F 4.2 °F 15.8 °F 80% 30.02 in 7.0 mi NW 25.3 mph 43.7 mph N/A Snow Light Snow
1:19 AM 21.2 °F 3.0 °F 14.0 °F 74% 30.00 in 5.0 mi NW 29.9 mph 50.6 mph N/A Snow Light Snow
1:41 AM 21.2 °F 3.0 °F 14.0 °F 74% 30.00 in 10.0 mi NW 29.9 mph 42.6 mph N/A Snow Light Snow
1:59 AM 19.4 °F -0.0 °F 15.8 °F 86% 29.99 in 5.0 mi NW 32.2 mph 46.0 mph N/A Snow Light Snow
2:19 AM 21.2 °F 1.7 °F 15.8 °F 80% 29.99 in 4.0 mi NW 35.7 mph 46.0 mph N/A Snow Light Snow
2:39 AM 19.4 °F 0.8 °F 15.8 °F 86% 30.00 in 3.0 mi NW 28.8 mph 41.4 mph N/A Snow Light Snow
2:59 AM 19.4 °F -1.8 °F 15.8 °F 86% 29.99 in 5.0 mi NW 40.3 mph 52.9 mph N/A Snow Light Snow
3:19 AM 19.4 °F 1.8 °F 14.0 °F 80% 30.00 in 5.0 mi NW 25.3 mph 49.5 mph N/A Snow Light Snow
3:39 AM 19.4 °F 2.1 °F 14.0 °F 80% 30.00 in 10.0 mi NW 24.2 mph 42.6 mph N/A   Clear
3:59 AM 19.4 °F 1.4 °F 14.0 °F 80% 30.00 in 10.0 mi NW 26.5 mph 39.1 mph N/A Snow Light Snow
4:19 AM 19.4 °F 0.5 °F 14.0 °F 80% 30.01 in 7.0 mi NW 29.9 mph 43.7 mph N/A Snow Light Snow
4:39 AM 19.4 °F 2.5 °F 14.0 °F 80% 30.03 in 7.0 mi NW 23.0 mph 38.0 mph N/A Snow Light Snow
4:59 AM 19.4 °F 4.1 °F 15.8 °F 86% 30.04 in 5.0 mi NW 18.4 mph 34.5 mph N/A Snow Light Snow
5:19 AM 19.4 °F 5.5 °F 15.8 °F 86% 30.05 in 5.0 mi NNW 15.0 mph 29.9 mph N/A Snow Light Snow
5:39 AM 19.4 °F 4.1 °F 15.8 °F 86% 30.04 in 10.0 mi NW 18.4 mph 32.2 mph N/A Snow Light Snow
5:59 AM 19.4 °F 4.5 °F 14.0 °F 80% 30.06 in 10.0 mi WNW 17.3 mph 29.9 mph N/A Snow Light Snow
6:19 AM 19.4 °F 3.2 °F 12.2 °F 74% 30.06 in 10.0 mi NNW 20.7 mph 35.7 mph N/A   Clear
6:39 AM 19.4 °F 3.2 °F 14.0 °F 80% 30.07 in 10.0 mi NW 20.7 mph 29.9 mph N/A   Clear
7:01 AM 19.4 °F 4.5 °F 15.8 °F 86% 30.07 in 10.0 mi NW 17.3 mph 27.6 mph N/A   Clear
7:19 AM 19.4 °F 6.6 °F 15.8 °F 86% 30.09 in 10.0 mi NW 12.7 mph 27.6 mph N/A Snow Light Snow
7:39 AM 19.4 °F 6.0 °F 15.8 °F 86% 30.10 in 10.0 mi NW 13.8 mph 26.5 mph N/A   Clear
7:59 AM 19.4 °F 5.5 °F 14.0 °F 80% 30.10 in 10.0 mi NNW 15.0 mph 28.8 mph N/A   Clear
8:19 AM 19.4 °F 8.6 °F 12.2 °F 74% 30.11 in 10.0 mi NW 9.2 mph 17.3 mph N/A   Clear
8:41 AM 21.2 °F 12.6 °F 14.0 °F 74% 30.12 in 10.0 mi NNW 6.9 mph 27.6 mph N/A   Clear
8:59 AM 21.2 °F 14.9 °F 14.0 °F 74% 30.13 in 10.0 mi NW 4.6 mph 19.6 mph N/A   Clear
9:19 AM 23.0 °F 15.8 °F 12.2 °F 63% 30.13 in 10.0 mi NNW 5.8 mph - N/A   Clear
9:39 AM 24.8 °F 19.1 °F 14.0 °F 64% 30.13 in 10.0 mi ESE 4.6 mph - N/A   Clear
9:59 AM 24.8 °F 12.4 °F 12.2 °F 59% 30.13 in 10.0 mi WNW 15.0 mph 24.2 mph N/A   Clear
10:19 AM 24.8 °F - 14.0 °F 64% 30.13 in 10.0 mi Calm Calm - N/A   Clear
10:39 AM 26.6 °F - 14.0 °F 59% 30.13 in 10.0 mi Calm Calm - N/A   Clear
10:59 AM 26.6 °F 21.2 °F 12.2 °F 55% 30.12 in 10.0 mi West 4.6 mph - N/A   Clear
11:19 AM 28.4 °F - 12.2 °F 51% 30.12 in 10.0 mi Calm Calm - N/A   Clear
11:39 AM 28.4 °F - 12.2 °F 51% 30.11 in 10.0 mi Calm Calm - N/A   Clear
11:59 AM 30.2 °F - 12.2 °F 47% 30.10 in 10.0 mi Calm Calm - N/A   Clear
12:19 PM 30.2 °F - 15.8 °F 55% 30.08 in 10.0 mi Calm Calm - N/A   Clear
12:39 PM 32.0 °F - 17.6 °F 55% 30.06 in 10.0 mi Calm Calm - N/A   Clear
12:59 PM 32.0 °F 27.5 °F 15.8 °F 51% 30.05 in 10.0 mi WSW 4.6 mph - N/A   Clear
1:19 PM 32.0 °F 25.6 °F 14.0 °F 48% 30.04 in 10.0 mi WSW 6.9 mph - N/A   Clear
1:41 PM 33.8 °F 28.6 °F 10.4 °F 38% 30.04 in 10.0 mi West 5.8 mph - N/A   Clear
1:59 PM 32.0 °F 25.6 °F 12.2 °F 44% 30.03 in 10.0 mi WNW 6.9 mph 16.1 mph N/A   Clear
2:19 PM 33.8 °F 28.6 °F 12.2 °F 41% 30.02 in 10.0 mi West 5.8 mph - N/A   Clear
2:39 PM 33.8 °F 24.8 °F 14.0 °F 44% 30.01 in 10.0 mi WNW 12.7 mph 20.7 mph N/A   Clear
2:59 PM 33.8 °F 22.8 °F 14.0 °F 44% 30.00 in 10.0 mi WNW 18.4 mph 26.5 mph N/A   Clear
3:19 PM 33.8 °F 23.5 °F 12.2 °F 41% 30.00 in 10.0 mi WNW 16.1 mph 28.8 mph N/A   Clear
3:39 PM 33.8 °F 24.8 °F 14.0 °F 44% 29.99 in 10.0 mi WNW 12.7 mph 28.8 mph N/A   Clear
3:59 PM 33.8 °F 24.8 °F 14.0 °F 44% 29.98 in 10.0 mi WNW 12.7 mph 25.3 mph N/A   Clear
4:20 PM 33.8 °F 22.2 °F 12.2 °F 41% 29.98 in 10.0 mi WNW 20.7 mph 25.3 mph N/A   Clear
4:41 PM 32.0 °F 21.6 °F 12.2 °F 44% 29.98 in 10.0 mi West 15.0 mph 26.5 mph N/A   Clear
4:59 PM 32.0 °F 23.0 °F 12.2 °F 44% 29.97 in 10.0 mi West 11.5 mph 21.9 mph N/A   Clear
5:19 PM 32.0 °F 23.0 °F 12.2 °F 44% 29.96 in 10.0 mi West 11.5 mph 21.9 mph N/A   Clear
5:40 PM 32.0 °F 21.6 °F 12.2 °F 44% 29.96 in 10.0 mi West 15.0 mph 23.0 mph N/A   Clear
5:59 PM 32.0 °F 23.6 °F 12.2 °F 44% 29.95 in 10.0 mi West 10.4 mph 20.7 mph N/A   Clear
6:19 PM 32.0 °F 23.0 °F 12.2 °F 44% 29.93 in 10.0 mi West 11.5 mph 21.9 mph N/A   Mostly Cloudy
6:39 PM 32.0 °F 24.2 °F 12.2 °F 44% 29.92 in 10.0 mi West 9.2 mph 21.9 mph N/A   Mostly Cloudy
6:59 PM 32.0 °F 22.5 °F 10.4 °F 41% 29.91 in 10.0 mi West 12.7 mph 21.9 mph N/A   Scattered Clouds
7:19 PM 32.0 °F 20.8 °F 12.2 °F 44% 29.88 in 10.0 mi West 17.3 mph 31.1 mph N/A   Scattered Clouds
7:39 PM 32.0 °F 19.5 °F 12.2 °F 44% 29.88 in 10.0 mi West 21.9 mph 31.1 mph N/A   Clear
7:59 PM 32.0 °F 23.0 °F 12.2 °F 44% 29.86 in 10.0 mi West 11.5 mph 28.8 mph N/A   Clear
8:19 PM 32.0 °F 18.1 °F 12.2 °F 44% 29.85 in 10.0 mi WNW 27.6 mph 40.3 mph N/A   Clear
8:40 PM 32.0 °F 17.2 °F 10.4 °F 41% 29.83 in 10.0 mi WNW 32.2 mph 44.9 mph N/A   Clear
8:59 PM 32.0 °F 16.5 °F 12.2 °F 44% 29.81 in 10.0 mi WNW 35.7 mph 43.7 mph N/A   Clear
9:19 PM 33.8 °F 18.1 °F 12.2 °F 41% 29.79 in 10.0 mi WNW 41.4 mph 63.3 mph N/A   Clear
9:39 PM 33.8 °F 19.0 °F 12.2 °F 41% 29.79 in 10.0 mi WNW 35.7 mph 56.4 mph N/A   Clear
10:19 PM 33.8 °F 18.8 °F 12.2 °F 41% 29.77 in 10.0 mi WNW 36.8 mph 59.8 mph N/A   Clear
10:41 PM 35.6 °F 21.0 °F 14.0 °F 41% 29.76 in 10.0 mi WNW 39.1 mph 56.4 mph N/A   Clear
11:20 PM 33.8 °F 19.6 °F 17.6 °F 52% 29.75 in 10.0 mi WNW 32.2 mph 54.1 mph N/A   Clear
11:40 PM 35.6 °F 22.7 °F 19.4 °F 52% 29.72 in 10.0 mi NW 28.8 mph 55.2 mph N/A   Clear